[[{"header":{"parameterUnit":"m.s-1","parameterCategory":1,"la1":30.2991,"la2":30.254,"lo1":-89.0895,"lo2":-89.0444,"dx":0.0017,"dy":0.0017,"nx":28,"ny":28,"refTime":"2023-01-21T15:00:00:Z","depth":0,"parameterNumber":2,"parameterNumberName":"U-component_of_WINDS"},"data":[0,0,0,0,0,0,0,0,0,0,0,0,0,0,0,0,0,0,0,0,0,0,0,0,0,0,0,0,0,0,0,0,0,0,0,0,0,0,0,0,0,0,0,0,0,0,0,0,0,0,0,0,0,0,0,0,0,0,-0.7711,-0.7711,0,-0.77,-0.7699,-0.7699,-0.7657,-0.7656,-0.7655,-0.7654,-0.7645,-0.7645,-0.7646,0,0,0,0,0,0,0,0,0,0,0,0,0,-0.7697,-0.7698,-0.7711,-0.7711,-0.771,-0.77,-0.7699,-0.7699,-0.7657,-0.7656,-0.7655,-0.7654,-0.7644,-0.7645,-0.7646,0,0,0,0,0,0,0,0,0,0,0,0,0,-0.7696,-0.7698,-0.7711,-0.7688,-0.7686,-0.77,-0.7699,-0.7699,-0.7658,-0.7656,-0.7655,-0.7653,-0.7644,-0.7645,-0.7646,-0.7681,0,0,-0.7649,-0.7649,0,0,0,0,0,0,0,0,-0.7696,-0.7697,-0.7692,-0.769,-0.7687,-0.7678,-0.7691,-0.7693,-0.7658,-0.7668,-0.7654,-0.7653,-0.7657,-0.7657,-0.7658,-0.7681,-0.768,-0.7649,-0.765,-0.765,-0.765,0,0,0,0,0,0,0,-0.7697,-0.7697,-0.7706,-0.7692,-0.7689,-0.7679,-0.7677,-0.7691,-0.7671,-0.7667,-0.7664,-0.7663,-0.7656,-0.7657,-0.7658,-0.768,-0.7649,-0.765,-0.7651,-0.7651,-0.7731,-0.7733,0,0,0,0,0,0,-0.77,-0.7697,-0.7707,-0.7706,-0.7688,-0.768,-0.7678,-0.7683,-0.7671,-0.7668,-0.7665,-0.7662,-0.7656,-0.7656,-0.7657,-0.7698,-0.765,-0.7651,-0.7652,-0.773,-0.7731,-0.7733,0,0,0,0,0,0,-0.7699,-0.7701,-0.7707,-0.7701,-0.7701,-0.7682,-0.7687,-0.7683,-0.7685,-0.7669,-0.7665,-0.767,-0.7655,-0.7656,-0.7675,-0.7697,-0.7652,-0.7652,-0.7728,-0.773,-0.7732,-0.7779,0,0,0,0,0,0,-0.7699,-0.7701,-0.7714,-0.7701,-0.7701,-0.7726,-0.7688,-0.7684,-0.7686,-0.7682,-0.7673,-0.767,-0.7654,-0.7674,-0.7676,-0.7697,-0.7653,-0.7726,-0.7729,-0.7732,-0.7776,-0.7783,-0.7789,0,0,0,0,0,-0.7699,-0.7728,-0.7715,-0.7716,-0.7717,-0.7727,-0.7727,-0.7708,-0.7688,-0.7701,-0.7691,-0.767,-0.7694,-0.7677,-0.7679,-0.77,-0.7724,-0.7728,-0.7731,-0.7773,-0.7781,-0.7789,0,0,0,0,0,0,-0.7744,-0.7726,-0.7711,-0.7737,-0.7734,-0.772,-0.7736,-0.7717,-0.772,-0.7716,-0.7693,-0.7691,-0.7714,-0.7709,-0.769,-0.7733,-0.7706,-0.771,-0.7736,-0.7744,-0.7751,-0.7752,-0.7654,0,0,0,0,0,-0.7757,-0.7766,-0.775,-0.7774,-0.7773,-0.7755,-0.7758,-0.7744,-0.7739,-0.7738,-0.7729,-0.7727,-0.7733,-0.7738,-0.7744,-0.7774,-0.7772,-0.779,-0.7797,-0.7802,-0.7806,-0.7822,-0.783,-0.7745,-0.7745,-0.7744,0,0,-0.7784,-0.7775,-0.7783,-0.7783,-0.7779,-0.7789,-0.7754,-0.7766,-0.7774,-0.774,-0.7758,-0.7752,-0.7747,-0.7772,-0.7783,-0.7769,-0.7829,-0.7807,-0.7811,-0.7812,-0.7827,-0.7835,-0.7842,-0.7747,-0.7746,-0.7746,0,0,-0.7839,-0.7833,-0.7852,-0.7849,-0.7842,-0.783,-0.7834,-0.7823,-0.7817,-0.7834,-0.7809,-0.7818,-0.783,-0.7828,-0.7828,-0.7881,-0.7863,-0.7884,-0.7919,-0.7935,-0.7941,-0.7947,-0.7967,-0.7974,-0.7888,-0.7888,-0.7888,0,-0.7874,-0.7888,-0.7865,-0.7879,-0.788,-0.7849,-0.7869,-0.7866,-0.7863,-0.7864,-0.7848,-0.7862,-0.7857,-0.7881,-0.7894,-0.7895,-0.7901,-0.7885,-0.7942,-0.7948,-0.7953,-0.7971,-0.7979,-0.789,-0.789,-0.789,-0.789,0,-0.7931,-0.7941,-0.7957,-0.7954,-0.7956,-0.7973,-0.7954,-0.796,-0.7944,-0.7934,-0.7952,-0.7944,-0.7948,-0.7952,-0.7938,-0.7975,-0.7966,-0.7946,-0.7918,-0.7964,-0.7981,-0.7988,-0.7894,-0.7893,-0.7893,-0.7892,0,0,-0.8015,-0.7998,-0.8004,-0.8002,-0.7992,-0.8,-0.8015,-0.8018,-0.8023,-0.8021,-0.8034,-0.8045,-0.8026,-0.8027,-0.8012,-0.8026,-0.8069,-0.8004,-0.8004,-0.8017,-0.8109,-0.8125,-0.8134,-0.8056,-0.8057,-0.8058,-0.811,0,-0.8068,-0.8093,-0.8072,-0.8101,-0.8111,-0.8081,-0.8094,-0.809,-0.808,-0.8087,-0.8076,-0.8084,-0.8059,-0.8059,-0.8071,-0.8061,-0.8087,-0.8057,-0.8068,-0.8069,-0.8071,-0.8142,-0.8159,-0.8209,-0.8116,-0.8118,-0.8118,0,-0.8133,-0.8133,-0.8163,-0.815,-0.8154,-0.8166,-0.8167,-0.8173,-0.8168,-0.8159,-0.816,-0.8141,-0.8156,-0.8127,-0.8147,-0.8127,-0.813,-0.8126,-0.8127,-0.8129,-0.8097,-0.8146,-0.8224,-0.8232,-0.8128,-0.8128,-0.8127,0,-0.8192,-0.82,-0.8218,-0.8217,-0.8203,-0.8213,-0.8208,-0.8201,-0.8203,-0.8204,-0.8206,-0.8208,-0.821,-0.8212,-0.8195,-0.8175,-0.8217,-0.8187,-0.8212,-0.8212,-0.8223,-0.8223,-0.8303,-0.8224,-0.8224,-0.8223,-0.8223,0,-0.8253,-0.8273,-0.8245,-0.8257,-0.8278,-0.8254,-0.8276,-0.8267,-0.8261,-0.8271,-0.8245,-0.8255,-0.8231,-0.8239,-0.8225,-0.8244,-0.8245,-0.8239,-0.8235,-0.8242,-0.8243,-0.8245,-0.8241,-0.8225,-0.8225,-0.8225,-0.8224,0,-0.8324,-0.8306,-0.8324,-0.8309,-0.8306,-0.8322,-0.8309,-0.832,-0.8308,-0.8321,-0.8322,-0.8304,-0.8311,-0.8294,-0.8299,-0.8289,-0.8317,-0.8307,-0.8319,-0.8316,-0.8342,-0.834,-0.8428,-0.8438,-0.8351,-0.8352,-0.8353,0,-0.8365,-0.8379,-0.8365,-0.8369,-0.8365,-0.8373,-0.8375,-0.8352,-0.8356,-0.8351,-0.8362,-0.8367,-0.837,-0.8383,-0.8371,-0.8375,-0.8365,-0.8396,-0.8366,-0.8372,-0.8367,-0.8367,-0.8368,-0.8402,-0.8403,-0.8404,-0.8405,0,-0.844,-0.843,-0.8433,-0.8434,-0.8438,-0.8437,-0.8435,-0.844,-0.8416,-0.8421,-0.8428,-0.8431,-0.8435,-0.8441,-0.8442,-0.8437,-0.8417,-0.8414,-0.842,-0.8427,-0.8434,-0.8431,-0.8337,-0.8412,-0.8412,-0.8411,-0.8411,-0.841,-0.8497,-0.8508,-0.85,-0.8505,-0.8501,-0.85,-0.8509,-0.8497,-0.8502,-0.8504,-0.849,-0.85,-0.8494,-0.8493,-0.849,-0.8498,-0.8484,-0.8493,-0.8495,-0.8498,-0.8503,-0.8432,-0.8498,-0.8498,-0.8497,-0.8497,-0.8497,0,-0.8571,-0.8564,-0.8569,-0.8566,-0.8571,-0.855,-0.8547,-0.8552,-0.8561,-0.8556,-0.856,-0.8568,-0.8573,-0.856,-0.8564,-0.8572,-0.8563,-0.8574,-0.8574,-0.8573,-0.8514,-0.8509,-0.8581,-0.8581,-0.8581,-0.8581,-0.8581,-0.8581,-0.861,-0.8628,-0.8617,-0.8633,-0.8626,-0.8635,-0.8634,-0.8633,-0.8629,-0.8639,-0.8643,-0.8634,-0.8627,-0.8629,-0.8633,-0.863,-0.8632,-0.8647,-0.864,-0.8585,-0.8577,-0.8569,-0.8564,-0.8647,-0.8647,-0.8698,-0.8698,-0.8699]},{"header":{"parameterUnit":"m.s-1","parameterCategory":1,"la1":30.2991,"la2":30.254,"lo1":-89.0895,"lo2":-89.0444,"dx":0.0017,"dy":0.0017,"nx":28,"ny":28,"refTime":"2023-01-21T15:00:00:Z","depth":0,"parameterNumber":3,"parameterNumberName":"V-component_of_WINDS"},"data":[0,0,0,0,0,0,0,0,0,0,0,0,0,0,0,0,0,0,0,0,0,0,0,0,0,0,0,0,0,0,0,0,0,0,0,0,0,0,0,0,0,0,0,0,0,0,0,0,0,0,0,0,0,0,0,0,0,0,-5.4051,-5.4051,0,-5.41,-5.41,-5.4101,-5.4039,-5.4037,-5.4034,-5.4032,-5.4078,-5.4081,-5.4084,0,0,0,0,0,0,0,0,0,0,0,0,0,-5.3899,-5.3902,-5.4051,-5.4051,-5.4052,-5.41,-5.41,-5.4101,-5.4039,-5.4037,-5.4034,-5.4031,-5.4077,-5.4081,-5.4084,0,0,0,0,0,0,0,0,0,0,0,0,0,-5.3958,-5.3903,-5.4051,-5.4027,-5.4025,-5.41,-5.41,-5.4101,-5.404,-5.4037,-5.4033,-5.403,-5.4075,-5.408,-5.4085,-5.4183,0,0,-5.41,-5.4102,0,0,0,0,0,0,0,0,-5.3955,-5.3964,-5.403,-5.4029,-5.4027,-5.406,-5.4063,-5.4128,-5.4041,-5.4034,-5.4032,-5.4028,-5.4074,-5.4079,-5.4095,-5.4185,-5.4187,-5.4101,-5.4104,-5.4106,-5.4107,0,0,0,0,0,0,0,-5.3951,-5.3961,-5.407,-5.4031,-5.4029,-5.4013,-5.4017,-5.4076,-5.4072,-5.4035,-5.403,-5.4037,-5.4073,-5.4091,-5.4096,-5.4188,-5.41,-5.4105,-5.4108,-5.411,-5.4361,-5.4365,0,0,0,0,0,0,-5.395,-5.3958,-5.4068,-5.4071,-5.3982,-5.4018,-5.4023,-5.4053,-5.4072,-5.4071,-5.404,-5.4034,-5.4084,-5.409,-5.4097,-5.4214,-5.4106,-5.411,-5.4113,-5.4357,-5.4362,-5.4366,0,0,0,0,0,0,-5.3947,-5.3961,-5.4066,-5.4014,-5.4026,-5.4024,-5.4058,-5.4055,-5.4074,-5.4076,-5.4074,-5.4059,-5.4082,-5.409,-5.4163,-5.4215,-5.4113,-5.4117,-5.4353,-5.4359,-5.4364,-5.4448,0,0,0,0,0,0,-5.3943,-5.396,-5.3998,-5.4015,-5.4029,-5.4133,-5.4061,-5.4059,-5.4083,-5.4076,-5.4094,-5.4093,-5.408,-5.4156,-5.4168,-5.422,-5.4121,-5.4348,-5.4356,-5.4362,-5.4441,-5.4456,-5.4469,0,0,0,0,0,-5.3938,-5.4019,-5.4001,-5.4014,-5.4077,-5.4136,-5.4143,-5.4127,-5.4087,-5.4125,-5.4127,-5.4093,-5.4207,-5.4164,-5.4177,-5.4231,-5.4345,-5.4353,-5.4362,-5.4434,-5.4453,-5.4469,0,0,0,0,0,0,-5.4006,-5.4021,-5.4,-5.4089,-5.4112,-5.4125,-5.4172,-5.4147,-5.418,-5.4172,-5.4149,-5.4154,-5.4231,-5.4238,-5.4189,-5.4327,-5.4269,-5.4281,-5.432,-5.4338,-5.4352,-5.4349,-5.4125,0,0,0,0,0,-5.4032,-5.408,-5.4089,-5.4166,-5.4179,-5.4174,-5.4199,-5.4185,-5.4207,-5.4215,-5.4222,-5.4243,-5.4284,-5.4311,-5.4348,-5.4441,-5.4444,-5.4485,-5.4499,-5.4511,-5.4521,-5.4571,-5.4589,-5.4393,-5.4393,-5.4393,0,0,-5.4084,-5.4098,-5.413,-5.4181,-5.4196,-5.4245,-5.4182,-5.4236,-5.4272,-5.4223,-5.4292,-5.4298,-5.432,-5.4403,-5.444,-5.4411,-5.4576,-5.4521,-5.4531,-5.4534,-5.4581,-5.46,-5.4617,-5.4399,-5.4398,-5.4397,0,0,-5.4206,-5.4222,-5.4289,-5.4306,-5.4332,-5.4328,-5.4344,-5.4362,-5.4364,-5.4434,-5.4398,-5.4439,-5.451,-5.4527,-5.4545,-5.4675,-5.4645,-5.4688,-5.4761,-5.4811,-5.4826,-5.484,-5.4886,-5.4903,-5.4698,-5.4698,-5.4698,0,-5.4268,-5.4342,-5.4325,-5.4383,-5.4406,-5.4366,-5.4433,-5.445,-5.4486,-5.4502,-5.447,-5.4558,-5.457,-5.4657,-5.4689,-5.4705,-5.4722,-5.4686,-5.4825,-5.4839,-5.4851,-5.4896,-5.4913,-5.4703,-5.4702,-5.4702,-5.4701,0,-5.4418,-5.4469,-5.452,-5.4558,-5.4587,-5.4649,-5.464,-5.4671,-5.4655,-5.4654,-5.4726,-5.4739,-5.4779,-5.4798,-5.4782,-5.4883,-5.4865,-5.4829,-5.4771,-5.4875,-5.4917,-5.4933,-5.471,-5.4708,-5.4707,-5.4705,0,0,-5.4583,-5.4612,-5.4631,-5.4649,-5.4674,-5.4713,-5.4773,-5.4814,-5.4841,-5.4867,-5.4916,-5.4977,-5.4945,-5.4966,-5.4951,-5.4994,-5.5097,-5.4953,-5.4953,-5.498,-5.521,-5.5237,-5.5257,-5.5077,-5.508,-5.5083,-5.5208,0,-5.4706,-5.4812,-5.4799,-5.4899,-5.4947,-5.4909,-5.4961,-5.4982,-5.4983,-5.5022,-5.5022,-5.5067,-5.5021,-5.5033,-5.5074,-5.5076,-5.5143,-5.5066,-5.5122,-5.5124,-5.5119,-5.5279,-5.5307,-5.5425,-5.5224,-5.5227,-5.5229,0,-5.4863,-5.4897,-5.5003,-5.5023,-5.5042,-5.509,-5.5126,-5.5165,-5.5187,-5.5185,-5.5209,-5.5187,-5.5245,-5.5186,-5.5266,-5.5215,-5.5236,-5.5241,-5.5245,-5.525,-5.5183,-5.5288,-5.5463,-5.5481,-5.5254,-5.5252,-5.525,0,-5.4974,-5.5046,-5.512,-5.5135,-5.5159,-5.5194,-5.5205,-5.5224,-5.525,-5.5281,-5.5298,-5.5335,-5.5356,-5.5385,-5.5373,-5.533,-5.5456,-5.5395,-5.5455,-5.5455,-5.5483,-5.5482,-5.5664,-5.5497,-5.5496,-5.5496,-5.5496,0,-5.5113,-5.5179,-5.517,-5.5215,-5.5289,-5.5272,-5.5345,-5.5351,-5.5369,-5.5413,-5.5382,-5.5424,-5.5406,-5.5447,-5.5437,-5.5506,-5.5515,-5.5514,-5.5511,-5.5518,-5.5518,-5.5532,-5.5524,-5.5501,-5.55,-5.5499,-5.5498,0,-5.5249,-5.5246,-5.5324,-5.5341,-5.5347,-5.54,-5.5414,-5.5456,-5.5455,-5.5512,-5.5524,-5.5522,-5.5569,-5.556,-5.561,-5.5604,-5.569,-5.5676,-5.5683,-5.568,-5.5741,-5.5736,-5.5939,-5.5965,-5.5781,-5.5782,-5.5784,0,-5.5339,-5.5389,-5.5413,-5.5442,-5.5456,-5.5502,-5.5529,-5.5515,-5.5544,-5.5574,-5.5612,-5.5656,-5.569,-5.5766,-5.5768,-5.5807,-5.5794,-5.5863,-5.58,-5.5805,-5.5796,-5.5794,-5.5799,-5.5876,-5.5878,-5.5879,-5.5881,0,-5.5497,-5.5494,-5.5534,-5.5575,-5.5609,-5.5639,-5.5667,-5.5691,-5.5679,-5.5713,-5.5761,-5.5789,-5.5841,-5.5885,-5.5922,-5.5931,-5.5904,-5.5901,-5.5917,-5.5924,-5.5927,-5.5927,-5.5718,-5.5896,-5.5895,-5.5894,-5.5893,-5.5892,-5.5613,-5.5657,-5.5681,-5.5728,-5.5747,-5.5774,-5.5815,-5.582,-5.586,-5.5904,-5.5892,-5.5947,-5.5968,-5.6014,-5.6028,-5.607,-5.6044,-5.6067,-5.6073,-5.6079,-5.6087,-5.592,-5.6076,-5.6076,-5.6075,-5.6075,-5.6075,0,-5.5771,-5.5785,-5.5828,-5.5869,-5.5906,-5.5879,-5.5908,-5.594,-5.5989,-5.6012,-5.6047,-5.6103,-5.6146,-5.6152,-5.6192,-5.6225,-5.6213,-5.6236,-5.6233,-5.6236,-5.6108,-5.609,-5.6244,-5.6244,-5.6244,-5.6244,-5.6244,-5.6244,-5.5858,-5.5931,-5.593,-5.6012,-5.6025,-5.608,-5.6099,-5.6123,-5.6142,-5.6206,-5.6242,-5.6247,-5.6263,-5.6304,-5.6342,-5.6342,-5.6359,-5.6386,-5.6382,-5.6262,-5.6245,-5.6229,-5.6213,-5.639,-5.639,-5.6508,-5.6509,-5.6509]}]]